Time,TemperatureF,DewpointF,PressureIn,WindDirection,WindDirectionDegrees,WindSpeedMPH,WindSpeedGustMPH,Humidity,HourlyPrecipIn,Conditions,Clouds,dailyrainin,SoftwareType,DateUTC
2013-03-23 00:00:00,29.3,22.0,30.02,NW,313,1.0,-999.0,78,-99.99,,,0.00,ADS-WS1 bash script,2013-03-23 04:00:00,
2013-03-23 00:10:00,29.1,22.0,30.02,NW,313,0.0,-999.0,78,-99.99,,,0.00,ADS-WS1 bash script,2013-03-23 04:10:00,
2013-03-23 00:20:00,29.1,22.0,30.02,NW,313,1.0,-999.0,78,-99.99,,,0.00,ADS-WS1 bash script,2013-03-23 04:20:00,
2013-03-23 00:25:00,29.1,22.0,30.02,NW,313,0.0,-999.0,80,-99.99,,,0.00,ADS-WS1 bash script,2013-03-23 04:25:00,
2013-03-23 00:30:00,28.9,22.0,30.02,NW,313,2.0,-999.0,80,-99.99,,,0.00,ADS-WS1 bash script,2013-03-23 04:30:00,
2013-03-23 00:35:00,28.9,22.0,30.02,NW,313,2.0,-999.0,80,-99.99,,,0.00,ADS-WS1 bash script,2013-03-23 04:35:00,
2013-03-23 00:40:00,29.1,22.0,30.02,NW,313,3.0,-999.0,79,-99.99,,,0.00,ADS-WS1 bash script,2013-03-23 04:40:00,
2013-03-23 00:50:00,29.1,22.0,30.02,NNW,343,0.0,-999.0,80,-99.99,,,0.00,ADS-WS1 bash script,2013-03-23 04:50:00,
2013-03-23 01:00:00,28.9,22.0,30.02,NNW,335,1.0,-999.0,80,-99.99,,,0.00,ADS-WS1 bash script,2013-03-23 05:00:00,
2013-03-23 01:05:00,28.9,22.0,30.03,NW,324,1.0,-999.0,78,-99.99,,,0.00,ADS-WS1 bash script,2013-03-23 05:05:00,
2013-03-23 01:10:00,28.9,22.0,30.03,NW,313,2.0,-999.0,78,-99.99,,,0.00,ADS-WS1 bash script,2013-03-23 05:10:00,
2013-03-23 01:20:00,28.7,22.0,30.03,NNW,347,2.0,-999.0,78,-99.99,,,0.00,ADS-WS1 bash script,2013-03-23 05:20:00,
2013-03-23 01:25:00,28.5,21.0,30.03,NNW,328,2.0,-999.0,80,-99.99,,,0.00,ADS-WS1 bash script,2013-03-23 05:25:00,
2013-03-23 01:30:00,28.4,21.0,30.03,NW,313,1.0,-999.0,79,-99.99,,,0.00,ADS-WS1 bash script,2013-03-23 05:30:00,
2013-03-23 01:35:00,28.4,21.0,30.03,NNW,343,1.0,-999.0,80,-99.99,,,0.00,ADS-WS1 bash script,2013-03-23 05:35:00,
2013-03-23 01:40:00,28.2,21.0,30.02,NW,313,1.0,-999.0,79,-99.99,,,0.00,ADS-WS1 bash script,2013-03-23 05:40:00,
2013-03-23 01:50:00,28.2,21.0,30.02,NNW,340,1.0,-999.0,79,-99.99,,,0.00,ADS-WS1 bash script,2013-03-23 05:50:00,
2013-03-23 01:55:00,28.2,21.0,30.02,WNW,302,2.0,-999.0,80,-99.99,,,0.00,ADS-WS1 bash script,2013-03-23 05:55:00,
2013-03-23 02:00:00,27.8,21.0,30.02,NNW,335,2.0,-999.0,80,-99.99,,,0.00,ADS-WS1 bash script,2013-03-23 06:00:00,
2013-03-23 02:10:00,27.8,21.0,30.03,NW,320,0.0,-999.0,80,-99.99,,,0.00,ADS-WS1 bash script,2013-03-23 06:10:00,
2013-03-23 02:15:00,27.8,22.0,30.03,NW,313,0.0,-999.0,81,-99.99,,,0.00,ADS-WS1 bash script,2013-03-23 06:15:00,
2013-03-23 02:20:00,27.6,22.0,30.03,NW,313,3.0,-999.0,81,-99.99,,,0.00,ADS-WS1 bash script,2013-03-23 06:20:00,
2013-03-23 02:30:00,27.3,20.0,30.03,NNW,341,1.0,-999.0,80,-99.99,,,0.00,ADS-WS1 bash script,2013-03-23 06:30:00,
2013-03-23 02:35:00,27.1,21.0,30.02,NE,38,0.0,-999.0,81,-99.99,,,0.00,ADS-WS1 bash script,2013-03-23 06:35:00,
2013-03-23 02:45:00,27.1,21.0,30.03,NW,316,2.0,-999.0,82,-99.99,,,0.00,ADS-WS1 bash script,2013-03-23 06:45:00,
2013-03-23 02:50:00,27.1,21.0,30.03,North,350,2.0,-999.0,81,-99.99,,,0.00,ADS-WS1 bash script,2013-03-23 06:50:00,
2013-03-23 02:55:00,27.1,21.0,30.03,NNW,347,0.0,-999.0,82,-99.99,,,0.00,ADS-WS1 bash script,2013-03-23 06:55:00,
2013-03-23 03:05:00,26.7,21.0,30.02,North,0,0.0,-999.0,82,-99.99,,,0.00,ADS-WS1 bash script,2013-03-23 07:05:00,
2013-03-23 03:10:00,26.7,21.0,30.03,NNW,333,1.0,-999.0,82,-99.99,,,0.00,ADS-WS1 bash script,2013-03-23 07:10:00,
2013-03-23 03:20:00,26.6,22.0,30.02,NNW,347,0.0,-999.0,84,-99.99,,,0.00,ADS-WS1 bash script,2013-03-23 07:20:00,
2013-03-23 03:25:00,26.4,21.0,30.03,NNW,345,0.0,-999.0,84,-99.99,,,0.00,ADS-WS1 bash script,2013-03-23 07:25:00,
2013-03-23 03:30:00,26.4,21.0,30.03,NW,306,0.0,-999.0,84,-99.99,,,0.00,ADS-WS1 bash script,2013-03-23 07:30:00,
2013-03-23 03:35:00,26.2,21.0,30.02,North,0,2.0,-999.0,84,-99.99,,,0.00,ADS-WS1 bash script,2013-03-23 07:35:00,
2013-03-23 03:40:00,26.2,21.0,30.02,NNW,333,1.0,-999.0,84,-99.99,,,0.00,ADS-WS1 bash script,2013-03-23 07:40:00,
2013-03-23 03:45:00,26.2,21.0,30.02,NW,323,3.0,-999.0,85,-99.99,,,0.00,ADS-WS1 bash script,2013-03-23 07:45:00,
2013-03-23 03:50:00,26.2,21.0,30.01,NNW,330,0.0,-999.0,85,-99.99,,,0.00,ADS-WS1 bash script,2013-03-23 07:50:00,
2013-03-23 03:55:00,26.0,21.0,30.02,NNW,333,1.0,-999.0,84,-99.99,,,0.00,ADS-WS1 bash script,2013-03-23 07:55:00,
2013-03-23 04:05:00,25.8,21.0,30.02,NNW,338,1.0,-999.0,85,-99.99,,,0.00,ADS-WS1 bash script,2013-03-23 08:05:00,
2013-03-23 04:15:00,25.5,21.0,30.02,North,355,0.0,-999.0,86,-99.99,,,0.00,ADS-WS1 bash script,2013-03-23 08:15:00,
2013-03-23 04:25:00,25.1,20.0,30.02,NW,307,0.0,-999.0,86,-99.99,,,0.00,ADS-WS1 bash script,2013-03-23 08:25:00,
2013-03-23 04:30:00,25.1,21.0,30.02,North,350,0.0,-999.0,87,-99.99,,,0.00,ADS-WS1 bash script,2013-03-23 08:30:00,
2013-03-23 04:35:00,25.1,21.0,30.02,NW,309,0.0,-999.0,87,-99.99,,,0.00,ADS-WS1 bash script,2013-03-23 08:35:00,
2013-03-23 04:40:00,25.1,21.0,30.02,NW,313,0.0,-999.0,87,-99.99,,,0.00,ADS-WS1 bash script,2013-03-23 08:40:00,
2013-03-23 04:50:00,24.9,21.0,30.02,NW,313,1.0,-999.0,87,-99.99,,,0.00,ADS-WS1 bash script,2013-03-23 08:50:00,
2013-03-23 04:55:00,24.9,21.0,30.02,NW,313,1.0,-999.0,87,-99.99,,,0.00,ADS-WS1 bash script,2013-03-23 08:55:00,
2013-03-23 05:05:00,24.8,21.0,30.02,NW,313,0.0,-999.0,87,-99.99,,,0.00,ADS-WS1 bash script,2013-03-23 09:05:00,
2013-03-23 05:10:00,24.6,21.0,30.02,NW,313,0.0,-999.0,88,-99.99,,,0.00,ADS-WS1 bash script,2013-03-23 09:10:00,
2013-03-23 05:15:00,24.4,21.0,30.02,NW,313,0.0,-999.0,89,-99.99,,,0.00,ADS-WS1 bash script,2013-03-23 09:15:00,
2013-03-23 05:20:00,24.4,20.0,30.02,NW,324,0.0,-999.0,88,-99.99,,,0.00,ADS-WS1 bash script,2013-03-23 09:20:00,
2013-03-23 05:25:00,24.2,21.0,30.03,NNW,338,1.0,-999.0,89,-99.99,,,0.00,ADS-WS1 bash script,2013-03-23 09:25:00,
2013-03-23 05:35:00,24.2,21.0,30.03,NW,313,0.0,-999.0,89,-99.99,,,0.00,ADS-WS1 bash script,2013-03-23 09:35:00,
2013-03-23 05:40:00,24.2,21.0,30.03,NW,313,1.0,-999.0,90,-99.99,,,0.00,ADS-WS1 bash script,2013-03-23 09:40:00,
2013-03-23 05:45:00,24.0,20.0,30.02,NW,313,0.0,-999.0,88,-99.99,,,0.00,ADS-WS1 bash script,2013-03-23 09:45:00,
2013-03-23 05:50:00,23.9,21.0,30.03,NW,313,0.0,-999.0,89,-99.99,,,0.00,ADS-WS1 bash script,2013-03-23 09:50:00,
2013-03-23 05:55:00,23.9,21.0,30.02,North,0,0.0,-999.0,90,-99.99,,,0.00,ADS-WS1 bash script,2013-03-23 09:55:00,
2013-03-23 06:00:00,23.7,21.0,30.03,North,0,0.0,-999.0,90,-99.99,,,0.00,ADS-WS1 bash script,2013-03-23 10:00:00,
2013-03-23 06:05:00,23.5,21.0,30.02,NW,313,0.0,-999.0,90,-99.99,,,0.00,ADS-WS1 bash script,2013-03-23 10:05:00,
2013-03-23 06:10:00,23.5,21.0,30.03,NW,307,0.0,-999.0,90,-99.99,,,0.00,ADS-WS1 bash script,2013-03-23 10:10:00,
2013-03-23 06:15:00,23.5,21.0,30.03,North,0,1.0,-999.0,90,-99.99,,,0.00,ADS-WS1 bash script,2013-03-23 10:15:00,
2013-03-23 06:20:00,23.3,20.0,30.03,North,0,1.0,-999.0,90,-99.99,,,0.00,ADS-WS1 bash script,2013-03-23 10:20:00,
2013-03-23 06:30:00,23.1,20.0,30.04,NW,313,0.0,-999.0,91,-99.99,,,0.00,ADS-WS1 bash script,2013-03-23 10:30:00,
2013-03-23 06:35:00,23.1,21.0,30.04,NW,313,0.0,-999.0,92,-99.99,,,0.00,ADS-WS1 bash script,2013-03-23 10:35:00,
2013-03-23 06:45:00,23.3,20.0,30.04,NW,320,2.0,-999.0,91,-99.99,,,0.00,ADS-WS1 bash script,2013-03-23 10:45:00,
2013-03-23 06:50:00,23.1,20.0,30.04,NNW,348,1.0,-999.0,90,-99.99,,,0.00,ADS-WS1 bash script,2013-03-23 10:50:00,
2013-03-23 06:55:00,23.1,20.0,30.04,North,0,0.0,-999.0,90,-99.99,,,0.00,ADS-WS1 bash script,2013-03-23 10:55:00,
2013-03-23 07:00:00,23.1,20.0,30.04,North,351,1.0,-999.0,91,-99.99,,,0.00,ADS-WS1 bash script,2013-03-23 11:00:00,
2013-03-23 07:05:00,23.0,21.0,30.05,NW,306,0.0,-999.0,92,-99.99,,,0.00,ADS-WS1 bash script,2013-03-23 11:05:00,
2013-03-23 07:10:00,23.1,21.0,30.04,NW,310,1.0,-999.0,92,-99.99,,,0.00,ADS-WS1 bash script,2013-03-23 11:10:00,
2013-03-23 07:15:00,23.0,21.0,30.05,NW,313,0.0,-999.0,92,-99.99,,,0.00,ADS-WS1 bash script,2013-03-23 11:15:00,
2013-03-23 07:20:00,23.0,20.0,30.05,NW,313,1.0,-999.0,91,-99.99,,,0.00,ADS-WS1 bash script,2013-03-23 11:20:00,
2013-03-23 07:25:00,23.0,20.0,30.04,NW,307,0.0,-999.0,91,-99.99,,,0.00,ADS-WS1 bash script,2013-03-23 11:25:00,
2013-03-23 07:35:00,23.0,20.0,30.05,North,350,0.0,-999.0,90,-99.99,,,0.00,ADS-WS1 bash script,2013-03-23 11:35:00,
2013-03-23 07:40:00,22.8,20.0,30.06,NW,313,0.0,-999.0,91,-99.99,,,0.00,ADS-WS1 bash script,2013-03-23 11:40:00,
2013-03-23 07:50:00,23.0,20.0,30.06,NW,313,1.0,-999.0,91,-99.99,,,0.00,ADS-WS1 bash script,2013-03-23 11:50:00,
2013-03-23 07:55:00,23.3,20.0,30.06,NW,309,1.0,-999.0,90,-99.99,,,0.00,ADS-WS1 bash script,2013-03-23 11:55:00,
2013-03-23 08:00:00,23.5,22.0,30.06,NW,313,0.0,-999.0,93,-99.99,,,0.00,ADS-WS1 bash script,2013-03-23 12:00:00,
2013-03-23 08:10:00,23.9,21.0,30.06,NNW,337,1.0,-999.0,91,-99.99,,,0.00,ADS-WS1 bash script,2013-03-23 12:10:00,
2013-03-23 08:15:00,24.4,21.0,30.06,North,0,2.0,-999.0,91,-99.99,,,0.00,ADS-WS1 bash script,2013-03-23 12:15:00,
2013-03-23 08:25:00,25.7,24.0,30.06,North,351,1.0,-999.0,92,-99.99,,,0.00,ADS-WS1 bash script,2013-03-23 12:25:00,
2013-03-23 08:35:00,26.6,24.0,30.06,NNW,348,1.0,-999.0,90,-99.99,,,0.00,ADS-WS1 bash script,2013-03-23 12:35:00,
2013-03-23 08:40:00,27.1,23.0,30.06,NNW,331,1.0,-999.0,88,-99.99,,,0.00,ADS-WS1 bash script,2013-03-23 12:40:00,
2013-03-23 08:45:00,27.5,25.0,30.06,North,0,0.0,-999.0,89,-99.99,,,0.00,ADS-WS1 bash script,2013-03-23 12:45:00,
2013-03-23 08:50:00,27.6,24.0,30.06,North,0,1.0,-999.0,88,-99.99,,,0.00,ADS-WS1 bash script,2013-03-23 12:50:00,
2013-03-23 08:55:00,28.0,24.0,30.07,NW,313,1.0,-999.0,87,-99.99,,,0.00,ADS-WS1 bash script,2013-03-23 12:55:00,
2013-03-23 09:05:00,28.5,23.0,30.06,NNE,21,2.0,-999.0,85,-99.99,,,0.00,ADS-WS1 bash script,2013-03-23 13:05:00,
2013-03-23 09:15:00,29.6,25.0,30.07,NE,43,2.0,-999.0,84,-99.99,,,0.00,ADS-WS1 bash script,2013-03-23 13:15:00,
2013-03-23 09:20:00,30.2,24.0,30.07,NNE,32,4.0,-999.0,82,-99.99,,,0.00,ADS-WS1 bash script,2013-03-23 13:20:00,
2013-03-23 09:25:00,30.7,25.0,30.07,NNW,341,4.0,-999.0,81,-99.99,,,0.00,ADS-WS1 bash script,2013-03-23 13:25:00,
2013-03-23 09:35:00,31.6,25.0,30.07,NNE,26,3.0,-999.0,78,-99.99,,,0.00,ADS-WS1 bash script,2013-03-23 13:35:00,
2013-03-23 09:40:00,32.0,24.0,30.07,NE,39,3.0,-999.0,76,-99.99,,,0.00,ADS-WS1 bash script,2013-03-23 13:40:00,
2013-03-23 09:45:00,32.1,23.0,30.07,NNE,33,7.0,-999.0,74,-99.99,,,0.00,ADS-WS1 bash script,2013-03-23 13:45:00,
2013-03-23 09:50:00,32.3,23.0,30.07,NE,43,4.0,-999.0,73,-99.99,,,0.00,ADS-WS1 bash script,2013-03-23 13:50:00,
2013-03-23 09:55:00,32.8,23.0,30.07,NE,53,2.0,-999.0,71,-99.99,,,0.00,ADS-WS1 bash script,2013-03-23 13:55:00,
2013-03-23 10:00:00,32.8,23.0,30.08,NNE,23,3.0,-999.0,70,-99.99,,,0.00,ADS-WS1 bash script,2013-03-23 14:00:00,
2013-03-23 10:05:00,32.7,23.0,30.07,NNE,16,4.0,-999.0,70,-99.99,,,0.00,ADS-WS1 bash script,2013-03-23 14:05:00,
2013-03-23 10:10:00,33.0,23.0,30.08,NNW,330,5.0,-999.0,70,-99.99,,,0.00,ADS-WS1 bash script,2013-03-23 14:10:00,
2013-03-23 10:15:00,33.0,22.0,30.09,North,9,6.0,-999.0,68,-99.99,,,0.00,ADS-WS1 bash script,2013-03-23 14:15:00,
2013-03-23 10:20:00,32.8,22.0,30.09,NE,43,4.0,-999.0,67,-99.99,,,0.00,ADS-WS1 bash script,2013-03-23 14:20:00,
2013-03-23 10:25:00,33.0,22.0,30.09,North,0,3.0,-999.0,69,-99.99,,,0.00,ADS-WS1 bash script,2013-03-23 14:25:00,
2013-03-23 10:30:00,33.2,22.0,30.09,North,0,4.0,-999.0,69,-99.99,,,0.00,ADS-WS1 bash script,2013-03-23 14:30:00,
2013-03-23 10:35:00,33.4,22.0,30.09,NNE,33,1.0,-999.0,69,-99.99,,,0.00,ADS-WS1 bash script,2013-03-23 14:35:00,
2013-03-23 10:40:00,33.6,22.0,30.09,NW,324,2.0,-999.0,66,-99.99,,,0.00,ADS-WS1 bash script,2013-03-23 14:40:00,
2013-03-23 10:45:00,33.6,22.0,30.09,NE,43,3.0,-999.0,65,-99.99,,,0.00,ADS-WS1 bash script,2013-03-23 14:45:00,
2013-03-23 10:50:00,33.6,22.0,30.09,NNW,335,1.0,-999.0,66,-99.99,,,0.00,ADS-WS1 bash script,2013-03-23 14:50:00,
2013-03-23 10:55:00,33.7,22.0,30.09,NNE,14,3.0,-999.0,66,-99.99,,,0.00,ADS-WS1 bash script,2013-03-23 14:55:00,
2013-03-23 11:00:00,33.6,22.0,30.09,North,350,3.0,-999.0,66,-99.99,,,0.00,ADS-WS1 bash script,2013-03-23 15:00:00,
2013-03-23 11:05:00,33.6,22.0,30.09,NE,43,0.0,-999.0,65,-99.99,,,0.00,ADS-WS1 bash script,2013-03-23 15:05:00,
2013-03-23 11:10:00,33.6,22.0,30.09,North,4,5.0,-999.0,65,-99.99,,,0.00,ADS-WS1 bash script,2013-03-23 15:10:00,
2013-03-23 11:15:00,33.4,21.0,30.09,North,351,3.0,-999.0,66,-99.99,,,0.00,ADS-WS1 bash script,2013-03-23 15:15:00,
2013-03-23 11:20:00,33.7,22.0,30.09,NNE,25,2.0,-999.0,65,-99.99,,,0.00,ADS-WS1 bash script,2013-03-23 15:20:00,
2013-03-23 11:25:00,33.9,22.0,30.09,NW,313,1.0,-999.0,64,-99.99,,,0.00,ADS-WS1 bash script,2013-03-23 15:25:00,
2013-03-23 11:30:00,34.1,22.0,30.09,WNW,302,1.0,-999.0,65,-99.99,,,0.00,ADS-WS1 bash script,2013-03-23 15:30:00,
2013-03-23 11:35:00,34.3,21.0,30.09,NE,43,1.0,-999.0,63,-99.99,,,0.00,ADS-WS1 bash script,2013-03-23 15:35:00,
2013-03-23 11:45:00,33.9,22.0,30.09,NW,313,2.0,-999.0,64,-99.99,,,0.00,ADS-WS1 bash script,2013-03-23 15:45:00,
2013-03-23 11:50:00,34.1,21.0,30.09,East,88,0.0,-999.0,63,-99.99,,,0.00,ADS-WS1 bash script,2013-03-23 15:50:00,
2013-03-23 12:00:00,35.5,23.0,30.09,North,351,2.0,-999.0,63,-99.99,,,0.00,ADS-WS1 bash script,2013-03-23 16:00:00,
2013-03-23 12:05:00,35.5,22.0,30.09,NNE,26,5.0,-999.0,61,-99.99,,,0.00,ADS-WS1 bash script,2013-03-23 16:05:00,
2013-03-23 12:10:00,35.7,23.0,30.09,ENE,74,3.0,-999.0,62,-99.99,,,0.00,ADS-WS1 bash script,2013-03-23 16:10:00,
2013-03-23 12:15:00,36.3,22.0,30.09,WNW,299,0.0,-999.0,59,-99.99,,,0.00,ADS-WS1 bash script,2013-03-23 16:15:00,
2013-03-23 12:20:00,36.8,23.0,30.09,NNE,18,3.0,-999.0,59,-99.99,,,0.00,ADS-WS1 bash script,2013-03-23 16:20:00,
2013-03-23 12:25:00,36.1,22.0,30.09,North,1,4.0,-999.0,59,-99.99,,,0.00,ADS-WS1 bash script,2013-03-23 16:25:00,
2013-03-23 12:35:00,36.3,22.0,30.10,North,11,2.0,-999.0,61,-99.99,,,0.00,ADS-WS1 bash script,2013-03-23 16:35:00,
2013-03-23 12:40:00,36.8,23.0,30.09,WNW,299,2.0,-999.0,59,-99.99,,,0.00,ADS-WS1 bash script,2013-03-23 16:40:00,
2013-03-23 12:50:00,37.0,23.0,30.10,WNW,283,3.0,-999.0,59,-99.99,,,0.00,ADS-WS1 bash script,2013-03-23 16:50:00,
2013-03-23 12:55:00,37.0,22.0,30.09,NNE,18,4.0,-999.0,57,-99.99,,,0.00,ADS-WS1 bash script,2013-03-23 16:55:00,
2013-03-23 13:00:00,37.7,23.0,30.09,WNW,299,3.0,-999.0,58,-99.99,,,0.00,ADS-WS1 bash script,2013-03-23 17:00:00,
2013-03-23 13:10:00,37.5,23.0,30.09,NNE,29,5.0,-999.0,57,-99.99,,,0.00,ADS-WS1 bash script,2013-03-23 17:10:00,
2013-03-23 13:15:00,37.5,23.0,30.09,NW,313,3.0,-999.0,58,-99.99,,,0.00,ADS-WS1 bash script,2013-03-23 17:15:00,
2013-03-23 13:25:00,38.4,23.0,30.09,NE,43,1.0,-999.0,57,-99.99,,,0.00,ADS-WS1 bash script,2013-03-23 17:25:00,
2013-03-23 13:30:00,38.1,23.0,30.09,NE,43,2.0,-999.0,58,-99.99,,,0.00,ADS-WS1 bash script,2013-03-23 17:30:00,
2013-03-23 13:35:00,37.5,23.0,30.09,NE,43,4.0,-999.0,58,-99.99,,,0.00,ADS-WS1 bash script,2013-03-23 17:35:00,
2013-03-23 13:40:00,37.3,23.0,30.09,NNW,348,3.0,-999.0,59,-99.99,,,0.00,ADS-WS1 bash script,2013-03-23 17:40:00,
2013-03-23 13:45:00,38.4,23.0,30.09,NE,43,3.0,-999.0,58,-99.99,,,0.00,ADS-WS1 bash script,2013-03-23 17:45:00,
2013-03-23 13:55:00,37.9,23.0,30.09,NNW,347,3.0,-999.0,58,-99.99,,,0.00,ADS-WS1 bash script,2013-03-23 17:55:00,
2013-03-23 14:00:00,37.5,24.0,30.09,ENE,63,4.0,-999.0,59,-99.99,,,0.00,ADS-WS1 bash script,2013-03-23 18:00:00,
2013-03-23 14:05:00,37.7,24.0,30.09,NNE,29,1.0,-999.0,59,-99.99,,,0.00,ADS-WS1 bash script,2013-03-23 18:05:00,
2013-03-23 14:10:00,38.4,24.0,30.09,NW,320,3.0,-999.0,59,-99.99,,,0.00,ADS-WS1 bash script,2013-03-23 18:10:00,
2013-03-23 14:15:00,39.0,24.0,30.09,NNE,16,2.0,-999.0,57,-99.99,,,0.00,ADS-WS1 bash script,2013-03-23 18:15:00,
2013-03-23 14:20:00,38.8,24.0,30.09,North,0,6.0,-999.0,58,-99.99,,,0.00,ADS-WS1 bash script,2013-03-23 18:20:00,
2013-03-23 14:30:00,39.5,25.0,30.09,SSE,163,2.0,-999.0,57,-99.99,,,0.00,ADS-WS1 bash script,2013-03-23 18:30:00,
2013-03-23 14:40:00,39.0,24.0,30.08,NNE,12,2.0,-999.0,56,-99.99,,,0.00,ADS-WS1 bash script,2013-03-23 18:40:00,
2013-03-23 14:50:00,38.2,23.0,30.08,NE,43,4.0,-999.0,57,-99.99,,,0.00,ADS-WS1 bash script,2013-03-23 18:50:00,
2013-03-23 15:00:00,39.3,24.0,30.08,NE,43,3.0,-999.0,56,-99.99,,,0.00,ADS-WS1 bash script,2013-03-23 19:00:00,
2013-03-23 15:05:00,39.1,24.0,30.08,North,4,1.0,-999.0,58,-99.99,,,0.00,ADS-WS1 bash script,2013-03-23 19:05:00,
2013-03-23 15:15:00,39.7,25.0,30.07,North,5,5.0,-999.0,57,-99.99,,,0.00,ADS-WS1 bash script,2013-03-23 19:15:00,
2013-03-23 15:20:00,39.7,25.0,30.06,NE,39,2.0,-999.0,58,-99.99,,,0.00,ADS-WS1 bash script,2013-03-23 19:20:00,
2013-03-23 15:25:00,40.0,25.0,30.07,ENE,62,2.0,-999.0,56,-99.99,,,0.00,ADS-WS1 bash script,2013-03-23 19:25:00,
2013-03-23 15:30:00,39.7,24.0,30.08,NNE,15,7.0,-999.0,54,-99.99,,,0.00,ADS-WS1 bash script,2013-03-23 19:30:00,
2013-03-23 15:35:00,38.8,23.0,30.07,NE,43,6.0,-999.0,55,-99.99,,,0.00,ADS-WS1 bash script,2013-03-23 19:35:00,
2013-03-23 15:45:00,37.9,24.0,30.07,NE,43,1.0,-999.0,59,-99.99,,,0.00,ADS-WS1 bash script,2013-03-23 19:45:00,
2013-03-23 15:50:00,37.9,23.0,30.07,NNW,343,1.0,-999.0,58,-99.99,,,0.00,ADS-WS1 bash script,2013-03-23 19:50:00,
2013-03-23 15:55:00,38.2,23.0,30.06,North,350,3.0,-999.0,57,-99.99,,,0.00,ADS-WS1 bash script,2013-03-23 19:55:00,
2013-03-23 16:05:00,40.0,24.0,30.06,NW,313,3.0,-999.0,55,-99.99,,,0.00,ADS-WS1 bash script,2013-03-23 20:05:00,
2013-03-23 16:10:00,40.0,24.0,30.06,ENE,59,0.0,-999.0,54,-99.99,,,0.00,ADS-WS1 bash script,2013-03-23 20:10:00,
2013-03-23 16:20:00,42.4,25.0,30.06,NW,304,4.0,-999.0,52,-99.99,,,0.00,ADS-WS1 bash script,2013-03-23 20:20:00,
2013-03-23 16:25:00,42.9,25.0,30.06,WNW,302,5.0,-999.0,50,-99.99,,,0.00,ADS-WS1 bash script,2013-03-23 20:25:00,
2013-03-23 16:35:00,43.1,25.0,30.06,NW,307,4.0,-999.0,49,-99.99,,,0.00,ADS-WS1 bash script,2013-03-23 20:35:00,
2013-03-23 16:40:00,42.6,26.0,30.06,NNW,343,1.0,-999.0,51,-99.99,,,0.00,ADS-WS1 bash script,2013-03-23 20:40:00,
2013-03-23 16:50:00,41.3,24.0,30.06,NNW,344,3.0,-999.0,52,-99.99,,,0.00,ADS-WS1 bash script,2013-03-23 20:50:00,
2013-03-23 17:00:00,41.5,26.0,30.06,ENE,62,4.0,-999.0,53,-99.99,,,0.00,ADS-WS1 bash script,2013-03-23 21:00:00,
2013-03-23 17:05:00,41.7,25.0,30.06,NE,38,2.0,-999.0,51,-99.99,,,0.00,ADS-WS1 bash script,2013-03-23 21:05:00,
2013-03-23 17:10:00,40.8,24.0,30.06,NNE,16,2.0,-999.0,52,-99.99,,,0.00,ADS-WS1 bash script,2013-03-23 21:10:00,
2013-03-23 17:15:00,40.2,24.0,30.07,NNE,15,6.0,-999.0,54,-99.99,,,0.00,ADS-WS1 bash script,2013-03-23 21:15:00,
2013-03-23 17:25:00,39.0,23.0,30.08,NNW,348,3.0,-999.0,55,-99.99,,,0.00,ADS-WS1 bash script,2013-03-23 21:25:00,
2013-03-23 17:35:00,38.4,23.0,30.07,North,8,3.0,-999.0,57,-99.99,,,0.00,ADS-WS1 bash script,2013-03-23 21:35:00,
2013-03-23 17:40:00,39.1,24.0,30.07,North,355,2.0,-999.0,56,-99.99,,,0.00,ADS-WS1 bash script,2013-03-23 21:40:00,
2013-03-23 17:45:00,39.7,24.0,30.07,NNW,335,3.0,-999.0,55,-99.99,,,0.00,ADS-WS1 bash script,2013-03-23 21:45:00,
2013-03-23 17:50:00,39.9,24.0,30.06,NE,46,2.0,-999.0,54,-99.99,,,0.00,ADS-WS1 bash script,2013-03-23 21:50:00,
2013-03-23 18:00:00,40.4,24.0,30.06,WSW,245,0.0,-999.0,53,-99.99,,,0.00,ADS-WS1 bash script,2013-03-23 22:00:00,
2013-03-23 18:05:00,40.6,25.0,30.06,NW,313,0.0,-999.0,53,-99.99,,,0.00,ADS-WS1 bash script,2013-03-23 22:05:00,
2013-03-23 18:15:00,39.7,24.0,30.06,NNW,327,1.0,-999.0,54,-99.99,,,0.00,ADS-WS1 bash script,2013-03-23 22:15:00,
2013-03-23 18:20:00,39.5,24.0,30.06,NNW,343,2.0,-999.0,54,-99.99,,,0.00,ADS-WS1 bash script,2013-03-23 22:20:00,
2013-03-23 18:25:00,39.3,23.0,30.06,NW,313,4.0,-999.0,55,-99.99,,,0.00,ADS-WS1 bash script,2013-03-23 22:25:00,
2013-03-23 18:30:00,39.3,23.0,30.06,North,7,3.0,-999.0,54,-99.99,,,0.00,ADS-WS1 bash script,2013-03-23 22:30:00,
2013-03-23 18:35:00,39.1,23.0,30.06,WNW,299,3.0,-999.0,54,-99.99,,,0.00,ADS-WS1 bash script,2013-03-23 22:35:00,
2013-03-23 18:45:00,39.5,24.0,30.06,NW,321,1.0,-999.0,54,-99.99,,,0.00,ADS-WS1 bash script,2013-03-23 22:45:00,
2013-03-23 18:50:00,39.5,24.0,30.06,NW,321,2.0,-999.0,55,-99.99,,,0.00,ADS-WS1 bash script,2013-03-23 22:50:00,
2013-03-23 19:00:00,39.5,24.0,30.06,NW,309,2.0,-999.0,55,-99.99,,,0.00,ADS-WS1 bash script,2013-03-23 23:00:00,
2013-03-23 19:10:00,38.8,23.0,30.06,NNW,338,1.0,-999.0,55,-99.99,,,0.00,ADS-WS1 bash script,2013-03-23 23:10:00,
2013-03-23 19:15:00,38.2,23.0,30.06,NNW,348,5.0,-999.0,56,-99.99,,,0.00,ADS-WS1 bash script,2013-03-23 23:15:00,
2013-03-23 19:20:00,38.1,23.0,30.05,North,0,0.0,-999.0,57,-99.99,,,0.00,ADS-WS1 bash script,2013-03-23 23:20:00,
2013-03-23 19:30:00,37.3,22.0,30.06,NNE,21,1.0,-999.0,58,-99.99,,,0.00,ADS-WS1 bash script,2013-03-23 23:30:00,
2013-03-23 19:35:00,36.8,23.0,30.05,NNW,335,1.0,-999.0,59,-99.99,,,0.00,ADS-WS1 bash script,2013-03-23 23:35:00,
2013-03-23 19:40:00,36.3,23.0,30.05,NNE,18,1.0,-999.0,62,-99.99,,,0.00,ADS-WS1 bash script,2013-03-23 23:40:00,
2013-03-23 19:50:00,35.4,22.0,30.05,North,5,1.0,-999.0,63,-99.99,,,0.00,ADS-WS1 bash script,2013-03-23 23:50:00,
2013-03-23 19:55:00,35.0,23.0,30.05,NW,309,2.0,-999.0,64,-99.99,,,0.00,ADS-WS1 bash script,2013-03-23 23:55:00,
2013-03-23 20:05:00,34.1,22.0,30.04,NNW,348,1.0,-999.0,66,-99.99,,,0.00,ADS-WS1 bash script,2013-03-24 00:05:00,
2013-03-23 20:15:00,33.2,22.0,30.05,NNW,348,2.0,-999.0,69,-99.99,,,0.00,ADS-WS1 bash script,2013-03-24 00:15:00,
2013-03-23 20:20:00,33.0,22.0,30.06,North,0,2.0,-999.0,68,-99.99,,,0.00,ADS-WS1 bash script,2013-03-24 00:20:00,
2013-03-23 20:25:00,32.8,22.0,30.06,NNW,340,2.0,-999.0,69,-99.99,,,0.00,ADS-WS1 bash script,2013-03-24 00:25:00,
2013-03-23 20:35:00,32.1,22.0,30.05,North,0,1.0,-999.0,70,-99.99,,,0.00,ADS-WS1 bash script,2013-03-24 00:35:00,
2013-03-23 20:45:00,32.0,22.0,30.06,NNW,330,1.0,-999.0,72,-99.99,,,0.00,ADS-WS1 bash script,2013-03-24 00:45:00,
2013-03-23 20:50:00,31.6,22.0,30.07,NNW,333,1.0,-999.0,72,-99.99,,,0.00,ADS-WS1 bash script,2013-03-24 00:50:00,
2013-03-23 20:55:00,31.2,22.0,30.07,North,0,0.0,-999.0,73,-99.99,,,0.00,ADS-WS1 bash script,2013-03-24 00:55:00,
2013-03-23 21:00:00,31.1,22.0,30.07,North,0,1.0,-999.0,73,-99.99,,,0.00,ADS-WS1 bash script,2013-03-24 01:00:00,
2013-03-23 21:05:00,30.7,22.0,30.07,North,0,1.0,-999.0,74,-99.99,,,0.00,ADS-WS1 bash script,2013-03-24 01:05:00,
2013-03-23 21:15:00,30.7,22.0,30.07,North,0,2.0,-999.0,74,-99.99,,,0.00,ADS-WS1 bash script,2013-03-24 01:15:00,
2013-03-23 21:20:00,30.7,22.0,30.07,NE,43,2.0,-999.0,75,-99.99,,,0.00,ADS-WS1 bash script,2013-03-24 01:20:00,
2013-03-23 21:25:00,30.3,21.0,30.07,NNE,19,0.0,-999.0,75,-99.99,,,0.00,ADS-WS1 bash script,2013-03-24 01:25:00,
2013-03-23 21:30:00,30.2,21.0,30.08,North,0,1.0,-999.0,75,-99.99,,,0.00,ADS-WS1 bash script,2013-03-24 01:30:00,
2013-03-23 21:35:00,30.0,22.0,30.07,NNE,28,1.0,-999.0,76,-99.99,,,0.00,ADS-WS1 bash script,2013-03-24 01:35:00,
2013-03-23 21:40:00,30.0,22.0,30.08,NNE,16,2.0,-999.0,76,-99.99,,,0.00,ADS-WS1 bash script,2013-03-24 01:40:00,
2013-03-23 21:50:00,30.3,22.0,30.08,NNE,21,2.0,-999.0,76,-99.99,,,0.00,ADS-WS1 bash script,2013-03-24 01:50:00,
2013-03-23 21:55:00,30.3,22.0,30.08,NE,43,2.0,-999.0,76,-99.99,,,0.00,ADS-WS1 bash script,2013-03-24 01:55:00,
2013-03-23 22:00:00,30.3,21.0,30.08,NE,43,1.0,-999.0,75,-99.99,,,0.00,ADS-WS1 bash script,2013-03-24 02:00:00,
2013-03-23 22:10:00,30.3,21.0,30.08,NE,43,0.0,-999.0,75,-99.99,,,0.00,ADS-WS1 bash script,2013-03-24 02:10:00,
2013-03-23 22:15:00,30.5,22.0,30.08,NE,43,1.0,-999.0,76,-99.99,,,0.00,ADS-WS1 bash script,2013-03-24 02:15:00,
2013-03-23 22:25:00,30.5,22.0,30.07,NE,43,0.0,-999.0,76,-99.99,,,0.00,ADS-WS1 bash script,2013-03-24 02:25:00,
2013-03-23 22:30:00,30.7,23.0,30.07,NE,43,2.0,-999.0,77,-99.99,,,0.00,ADS-WS1 bash script,2013-03-24 02:30:00,
2013-03-23 22:35:00,30.9,23.0,30.07,NE,43,1.0,-999.0,76,-99.99,,,0.00,ADS-WS1 bash script,2013-03-24 02:35:00,
2013-03-23 22:40:00,31.1,23.0,30.07,NE,43,1.0,-999.0,76,-99.99,,,0.00,ADS-WS1 bash script,2013-03-24 02:40:00,
2013-03-23 22:45:00,31.2,22.0,30.07,NE,36,2.0,-999.0,75,-99.99,,,0.00,ADS-WS1 bash script,2013-03-24 02:45:00,
2013-03-23 22:55:00,31.6,24.0,30.06,NE,43,2.0,-999.0,76,-99.99,,,0.00,ADS-WS1 bash script,2013-03-24 02:55:00,
2013-03-23 23:05:00,31.8,23.0,30.06,NE,43,1.0,-999.0,75,-99.99,,,0.00,ADS-WS1 bash script,2013-03-24 03:05:00,
2013-03-23 23:10:00,32.0,23.0,30.06,ENE,77,2.0,-999.0,74,-99.99,,,0.00,ADS-WS1 bash script,2013-03-24 03:10:00,
2013-03-23 23:15:00,32.1,23.0,30.06,NNE,32,3.0,-999.0,74,-99.99,,,0.00,ADS-WS1 bash script,2013-03-24 03:15:00,
2013-03-23 23:20:00,32.3,23.0,30.06,NE,38,2.0,-999.0,74,-99.99,,,0.00,ADS-WS1 bash script,2013-03-24 03:20:00,
2013-03-23 23:25:00,32.3,23.0,30.06,NE,43,2.0,-999.0,74,-99.99,,,0.00,ADS-WS1 bash script,2013-03-24 03:25:00,
2013-03-23 23:30:00,32.3,23.0,30.06,NE,43,2.0,-999.0,73,-99.99,,,0.00,ADS-WS1 bash script,2013-03-24 03:30:00,
2013-03-23 23:35:00,32.3,23.0,30.06,North,9,1.0,-999.0,74,-99.99,,,0.00,ADS-WS1 bash script,2013-03-24 03:35:00,
2013-03-23 23:40:00,32.3,23.0,30.06,NE,43,1.0,-999.0,73,-99.99,,,0.00,ADS-WS1 bash script,2013-03-24 03:40:00,
2013-03-23 23:45:00,32.0,23.0,30.05,NE,43,1.0,-999.0,74,-99.99,,,0.00,ADS-WS1 bash script,2013-03-24 03:45:00,
2013-03-23 23:50:00,31.6,23.0,30.05,NNE,29,1.0,-999.0,74,-99.99,,,0.00,ADS-WS1 bash script,2013-03-24 03:50:00,
2013-03-23 23:55:00,31.2,23.0,30.05,NE,39,2.0,-999.0,76,-99.99,,,0.00,ADS-WS1 bash script,2013-03-24 03:55:00,